Location: ???? ?????
(37.9132°N, 22.9869°E)
Time: 03:35:30
(UTC+00:00)

Cosmos 1459 Rocket - Pass Details

Date: 04 August 2024
Orbit: 935 x 999 km, 83.0° (Epoch: 09 September)

Event Time Altitude Azimuth Distance (km) Brightness Sun altitude
Exits shadow 21:26:09 59° 296° (WNW) 1,117 4.3 -32.9°
Drops below altitude 10° 21:31:55 10° 359° (N) 2,713 7.1 -33.3°
Sets 21:34:27 0° 3° (N) 3,654 7.9 -33.4°
